User: anonymous   Login
Location: Mactaquac Provincial Park
(45.9573°N, 66.8897°W)
Time: 16:11:34
(UTC-03:00)
Language:

Cosmos 1867 - Orbit

View from above orbital plane
View from above orbital plane
View from above satellite
View from above satellite

Ground track
Ground track

The orbit data is extracted from the following two-line orbital elements,

1 18187U 87060A   16150.50849503 -.00000104  00000-0 -14235-5 0  9990
2 18187  65.0105 222.5592 0021009 268.4824  91.3854 14.31074720509099
Epoch (UTC): 29 May 2016 12:12:13
Eccentricity: 0.0021009
inclination: 65.0105°
perigee height: 773 km
apogee height: 803 km
right ascension of ascending node: 222.5592°
argument of perigee: 268.4824°
revolutions per day: 14.31074720
mean anomaly at epoch: 91.3854°
orbit number at epoch: 50909

The dashed part of the orbit path shows where the satellite is in the earth's shadow,  

DLR